Vorticity
17 15 13 12 11 10 10 10 9 8 8 8 8 9 9 10 9 9 8 9 10 10 10 11 11 11 12 12 12 12 11 11 11 11 11 11 12 13 14 15 16 16 17 17 16 16 15 14 13 12 11 10 10 9 9 8 8 8 7 7 6 6 6 6 5 5 6 6 6 7 8 9 10 11 12 14 15 16 17 18 19 20 21 21 21 20
21 20 19 18 17 15 13 14 13 13 12 11 10 9 8 8 7 7 8 9 10 10 10 11 11 11 12 12 12 12 12 12 12 12 13 13 14 14 15 15 15 14 14 14 13 12 11 10 10 9 8 8 7 7 7 6 6 6 5 5 5 5 5 5 5 6 7 8 9 11 12 13 15 16 17 18 18 19 20 20 20 20 19 19 18 17
20 21 21 22 22 22 20 18 17 17 17 16 15 13 11 10 10 10 10 11 11 12 12 13 13 13 13 13 13 13 13 14 14 14 15 14 14 14 13 13 12 12 12 11 10 9 8 7 7 6 6 5 5 5 5 5 4 4 4 4 5 5 6 7 8 10 11 13 14 16 17 18 18 19 19 19 19 19 19 18 18 17 16 16 15 14
15 17 18 20 23 24 25 22 20 19 19 18 17 16 15 14 14 14 13 13 13 13 13 13 13 13 13 13 13 14 14 14 15 14 14 14 13 12 12 11 10 10 9 8 8 7 6 5 5 5 4 4 4 4 4 4 4 5 5 6 7 9 10 12 14 15 17 18 19 19 19 19 19 19 18 18 18 17 16 16 15 14 14 13 13 12
12 12 12 14 17 20 21 20 17 16 16 16 16 15 14 14 14 14 13 13 13 12 12 12 13 13 12 12 12 13 13 13 13 13 12 12 11 10 10 9 8 8 7 6 5 5 4 4 4 4 4 4 4 4 5 5 6 8 9 11 13 15 17 18 19 20 20 20 20 19 19 18 17 16 16 15 15 14 14 13 13 12 12 12 11 11
10 10 8 11 13 14 14 13 13 12 13 13 14 14 14 13 13 13 13 13 13 13 13 13 13 13 12 11 11 11 11 11 11 10 10 9 8 8 7 7 6 5 5 5 4 4 4 4 4 4 5 5 6 7 9 10 12 14 16 18 19 20 21 21 21 20 19 18 17 16 15 15 14 13 13 12 12 12 12 12 12 11 11 11 11 11
10 9 9 11 12 12 12 11 11 11 12 12 13 13 14 14 13 13 13 12 12 12 12 12 12 12 11 10 10 10 10 9 8 7 6 6 6 5 5 5 5 4 4 4 4 4 5 5 6 7 8 10 12 14 16 17 19 20 21 21 20 20 19 18 17 16 14 14 13 12 12 11 11 11 11 11 11 11 11 11 11 11 11 11 11 11
11 11 11 12 12 13 14 13 12 12 14 13 13 13 13 13 12 12 11 11 12 12 12 12 11 10 10 9 9 8 8 7 6 5 5 5 5 5 5 5 5 5 5 6 6 7 8 9 11 13 15 16 18 19 20 20 20 19 18 16 15 14 12 11 10 10 9 9 9 9 9 9 9 9 10 10 10 10 10 11 11 11 12 12 12 12
12 11 12 12 12 12 13 13 12 12 13 13 12 11 10 10 10 10 10 11 12 12 11 11 10 9 8 8 8 7 6 6 5 5 5 5 5 5 5 6 7 7 8 9 11 12 13 15 16 18 19 19 18 18 17 15 14 12 11 10 9 8 7 7 7 6 7 7 7 7 7 7 8 8 8 8 8 9 9 9 10 10 11 11 12 12
12 11 10 12 12 11 10 11 11 11 13 14 14 13 12 11 11 11 11 11 10 10 10 10 9 8 7 7 6 6 6 6 6 6 6 6 7 7 8 9 10 12 13 14 15 16 17 17 17 17 16 15 13 12 10 9 8 7 6 6 5 5 5 5 5 5 5 6 6 6 6 7 7 7 7 7 7 7 7 7 8 8 8 9 10 10
11 11 11 13 14 14 12 12 13 14 16 17 17 16 15 14 14 13 12 10 9 9 8 8 7 7 7 6 6 6 6 7 7 8 8 9 10 11 12 14 15 15 16 16 16 15 15 14 13 11 10 9 8 7 6 6 5 5 5 4 4 4 4 5 5 5 5 6 6 6 7 7 7 7 7 7 7 7 7 6 6 6 6 6 6 7
12 13 13 13 13 13 12 12 13 13 14 14 13 12 11 10 10 10 9 8 7 7 6 5 5 5 5 6 6 7 7 9 10 11 12 13 14 15 15 16 15 15 14 13 12 11 10 9 8 7 6 5 5 5 5 5 4 4 4 4 5 5 5 5 6 6 7 7 7 7 8 8 8 8 8 8 8 8 8 8 7 6 6 5 5 5
11 11 11 10 9 8 8 8 8 8 8 7 7 7 7 6 6 6 5 5 5 5 5 5 5 6 6 7 8 10 11 13 14 14 15 15 15 14 14 13 12 11 10 8 8 7 6 5 5 5 4 4 4 4 5 5 5 5 5 5 6 6 7 7 8 8 8 8 9 9 9 9 10 10 10 11 11 11 11 11 11 11 10 10 9 8
9 8 7 6 5 5 5 6 6 6 6 6 6 6 6 5 5 5 5 6 6 6 6 7 8 9 10 11 12 13 14 15 15 15 15 14 13 12 11 9 8 7 6 5 5 4 4 4 4 4 4 5 5 5 5 6 6 6 6 7 7 8 8 9 9 10 10 11 11 12 12 13 13 14 14 14 14 14 14 14 14 14 14 15 15 15
7 7 6 5 5 6 6 6 6 6 6 6 6 6 6 6 6 7 7 8 8 9 10 11 12 13 14 15 15 15 16 15 14 13 12 11 10 9 8 7 6 5 4 4 4 4 4 4 5 5 5 6 6 6 6 7 7 8 8 9 9 10 11 11 12 13 14 14 16 17 18 19 20 20 21 21 21 20 20 19 18 18 17 17 18 18
6 5 4 5 5 6 6 6 6 7 7 7 7 7 7 8 9 9 10 11 12 12 13 14 15 16 17 16 15 15 14 13 11 10 8 7 7 6 5 5 4 4 4 4 4 4 5 6 7 7 7 8 8 8 9 9 9 10 11 11 12 13 14 15 16 18 19 21 22 24 25 26 26 27 27 27 26 26 25 24 24 23 22 21 20 19
6 5 5 6 6 7 7 7 7 7 7 8 8 9 9 11 12 12 13 14 14 15 16 15 14 14 12 12 11 11 10 9 8 7 6 6 5 4 5 5 5 4 5 6 6 7 7 8 8 9 10 10 10 10 11 11 12 13 14 15 16 18 20 22 24 26 28 29 31 32 32 32 32 31 30 29 28 27 26 26 26 25 24 23 22 21
7 7 7 7 7 7 7 7 8 8 9 10 11 12 13 14 14 15 15 15 15 15 14 13 13 11 10 8 7 6 7 7 6 6 6 6 5 5 6 6 6 7 7 8 8 9 9 10 10 10 11 11 12 13 13 14 16 17 19 21 23 26 28 30 32 34 35 36 36 36 35 34 33 31 29 28 27 26 25 25 24 23 22 22 22 22
5 5 5 6 6 6 7 8 9 10 12 13 13 14 15 15 15 15 14 14 13 12 11 10 9 8 7 6 6 6 6 7 6 6 6 7 7 7 7 8 9 9 10 10 10 10 11 11 12 12 13 14 15 17 18 20 22 24 26 28 30 31 33 34 35 35 35 35 34 33 31 30 28 27 26 25 25 25 25 25 24 23 22 22 21 19
5 4 4 5 6 7 9 10 11 12 14 14 14 14 14 14 13 12 12 10 10 9 8 7 6 6 6 6 6 6 7 7 7 8 8 8 9 9 9 10 10 11 11 12 12 12 13 13 15 16 17 19 20 22 24 25 27 28 29 29 29 29 29 29 29 29 29 28 27 26 25 24 24 24 25 25 26 27 28 29 29 28 27 25 23 21
4 4 5 6 8 10 12 12 13 14 15 14 14 13 13 12 10 10 8 8 7 6 6 6 5 6 6 7 7 8 9 8 9 9 10 10 10 11 11 11 12 12 13 14 15 15 16 18 19 20 21 23 24 25 26 26 25 25 24 23 22 22 22 22 22 22 22 21 20 20 20 21 22 24 25 27 28 29 30 31 31 31 31 31 29 28
7 9 11 12 13 14 15 15 15 15 15 14 13 11 10 9 8 7 6 6 6 6 6 6 6 7 8 8 8 9 10 10 10 10 10 11 12 13 13 13 14 15 17 17 18 19 20 21 22 23 23 24 24 23 23 22 21 20 19 18 18 18 18 18 18 18 17 16 15 15 15 17 19 21 23 25 26 27 28 29 30 31 32 32 33 32
13 14 16 17 18 18 17 16 15 14 13 12 10 9 8 7 7 6 6 6 6 7 7 7 8 8 8 9 9 10 10 10 10 11 11 13 14 15 15 15 17 18 20 20 20 21 21 22 22 22 22 21 21 20 20 19 19 19 19 19 19 18 18 18 17 16 14 13 12 11 11 13 16 18 20 22 23 24 25 26 27 29 30 31 31 32
17 18 18 18 18 17 15 14 12 11 9 8 7 7 6 6 6 6 7 7 7 8 8 8 9 9 9 10 11 11 11 11 11 12 14 16 17 18 18 18 19 20 21 21 20 20 20 20 20 20 19 19 20 20 21 21 21 20 20 20 19 19 18 17 16 15 14 12 10 9 9 11 13 16 18 20 21 22 22 24 25 26 28 28 29 29
19 18 18 17 16 14 12 10 9 8 7 6 6 6 6 6 6 7 8 8 9 9 10 10 10 10 11 11 12 12 12 12 13 15 18 19 20 20 20 19 19 19 19 18 18 18 18 19 19 19 20 20 22 22 23 22 21 20 19 19 18 17 16 16 15 15 14 12 11 10 9 10 12 14 17 18 19 19 20 21 22 24 26 27 28 28
18 17 16 14 12 11 9 8 7 7 6 7 7 7 8 8 8 9 9 10 10 11 11 11 11 12 12 12 12 13 14 14 16 18 20 20 20 20 18 17 17 17 16 16 16 17 19 20 20 21 21 23 24 23 22 20 18 16 16 15 15 15 15 14 14 14 14 13 12 10 9 9 11 12 14 15 16 16 17 17 19 21 25 26 26 26
15 13 12 10 9 8 7 7 7 7 7 7 8 9 10 10 10 10 10 11 12 12 11 12 12 12 12 13 14 14 15 16 18 19 20 19 18 17 15 14 15 16 15 15 16 19 21 21 21 22 22 23 22 20 17 15 13 12 12 12 12 12 12 12 13 13 13 12 12 11 10 9 10 10 11 12 13 14 14 14 15 17 21 22 22 22
11 10 9 8 8 7 7 7 8 8 8 8 9 10 10 11 11 11 11 13 13 12 11 11 11 12 12 14 15 15 16 17 18 18 17 16 16 14 13 13 15 16 16 16 17 19 22 22 21 20 20 19 18 16 14 13 12 11 11 11 11 11 11 11 12 12 12 12 11 11 10 9 9 9 9 9 10 11 12 12 12 12 14 17 18 18
8 7 7 7 7 7 7 8 8 8 8 9 10 10 11 11 11 11 13 13 12 11 11 11 12 13 14 15 16 16 17 17 16 15 14 14 14 13 12 13 16 17 17 17 17 18 19 20 19 18 17 15 13 13 13 13 13 13 13 13 13 13 13 13 13 13 12 12 12 12 11 10 10 9 8 8 8 9 10 10 10 9 8 10 13 15
6 6 6 6 7 7 8 8 8 9 9 10 10 11 12 11 11 12 13 12 11 10 10 11 12 14 15 15 15 16 16 16 15 13 12 13 13 13 13 15 17 19 19 18 17 17 18 18 17 15 13 12 11 12 12 13 14 14 14 14 15 15 15 15 14 14 14 14 13 13 12 11 11 10 9 9 9 9 9 10 9 8 6 6 9 13
7 7 7 7 7 8 8 8 9 10 10 11 12 12 13 12 12 12 12 11 10 10 10 12 13 14 14 14 14 13 13 13 12 12 11 12 13 14 14 15 18 20 20 19 18 18 19 18 16 13 12 11 11 11 12 13 13 13 13 14 14 14 14 14 14 14 14 14 14 13 13 12 12 11 11 10 10 10 10 10 10 9 8 7 8 11
8 8 8 8 9 9 9 10 10 11 12 12 13 13 14 13 13 12 11 10 9 10 12 13 14 14 15 14 13 12 11 11 11 11 12 13 14 14 14 15 16 17 18 18 18 17 17 19 17 14 11 11 11 11 11 11 11 11 11 12 12 12 12 12 12 12 12 13 13 13 13 13 12 12 12 12 12 13 13 12 12 11 10 10 10 11
9 9 9 9 10 10 11 11 12 12 13 14 14 14 14 14 13 12 10 9 9 10 12 14 14 14 14 14 13 12 11 11 11 11 12 14 14 14 13 14 14 15 14 15 15 15 15 15 15 14 13 11 10 10 10 11 11 11 11 11 12 12 12 12 12 12 12 12 12 12 12 12 12 12 13 13 14 14 15 14 14 13 13 12 13 13
10 10 10 11 11 11 12 12 13 14 14 15 15 15 15 14 12 11 9 8 9 10 13 14 14 14 13 12 12 11 12 11 11 12 13 14 14 14 12 13 13 13 12 12 12 13 13 12 12 14 15 12 11 11 10 10 11 11 12 12 13 13 13 14 14 14 14 13 13 12 11 11 11 11 12 13 14 15 15 15 14 14 13 14 14 15
11 11 12 12 12 12 13 13 14 14 15 15 15 15 14 13 11 10 8 8 9 11 13 15 15 14 13 12 11 11 11 11 11 12 12 13 13 13 11 12 12 12 12 11 11 11 11 11 12 12 13 14 14 13 12 12 11 11 12 13 14 14 15 15 16 17 17 16 16 15 13 12 11 11 11 12 12 13 14 14 14 14 13 14 14 16
12 12 13 13 13 14 14 14 14 14 15 15 15 14 13 12 10 9 8 8 9 11 13 15 15 15 14 12 11 11 11 11 11 11 11 12 12 12 11 10 10 11 11 10 10 10 10 10 10 11 11 12 13 13 13 13 12 12 13 14 14 15 15 16 16 17 18 18 18 18 17 15 14 13 12 11 11 11 12 12 12 12 12 12 13 14
13 13 14 14 14 14 14 14 14 13 13 13 14 13 13 11 10 9 8 8 9 11 13 14 15 14 13 13 13 12 12 11 10 10 10 10 10 10 9 9 8 8 10 9 8 8 8 9 9 10 11 12 11 10 11 11 11 12 13 13 13 13 14 15 15 16 17 18 19 19 19 19 18 17 15 13 12 10 10 10 10 10 10 10 10 11
14 14 14 14 14 14 13 13 12 11 11 11 12 12 12 11 10 9 8 9 10 11 13 14 14 13 12 12 12 12 12 11 10 9 8 8 8 8 8 7 6 6 7 8 7 6 6 6 7 8 9 10 11 10 10 10 11 12 13 12 12 12 13 13 14 15 16 18 19 19 20 20 20 20 19 17 14 12 10 9 8 8 9 8 8 8
14 14 14 14 13 12 12 11 10 9 9 10 10 10 10 10 10 9 9 9 10 11 12 12 13 12 12 12 11 11 11 10 9 8 8 7 7 7 7 6 5 5 5 6 6 6 6 6 6 7 6 8 9 10 10 11 11 12 11 11 12 12 13 13 13 14 15 16 18 20 20 21 22 22 22 21 18 16 12 9 8 8 8 8 8 8
13 13 13 12 12 11 10 9 9 9 9 9 9 9 9 9 9 9 9 9 9 10 11 11 11 11 12 12 11 11 10 10 9 8 8 7 7 7 6 6 5 4 4 4 5 6 6 6 6 6 6 7 7 7 8 10 10 11 10 11 12 12 12 12 12 13 14 15 16 18 20 21 22 23 24 23 21 19 16 12 10 8 8 8 7 6
12 12 12 11 11 10 10 9 9 9 9 9 9 9 9 9 9 9 8 9 9 9 10 10 10 10 10 10 10 10 10 9 9 8 8 8 7 7 7 7 6 5 4 4 4 5 6 6 6 6 6 7 7 7 8 9 9 9 10 11 12 12 11 11 12 12 13 14 15 16 18 19 21 23 24 23 22 20 18 16 14 11 10 10 9 8
13 13 12 12 12 11 11 10 10 10 10 10 10 10 10 10 10 10 10 9 9 9 9 9 10 10 10 9 8 8 8 9 9 9 9 8 8 8 7 7 7 6 6 4 4 5 6 7 7 6 6 6 6 7 7 8 8 9 9 10 11 11 11 12 12 12 12 13 14 15 15 16 18 19 21 22 20 18 16 18 18 16 13 11 10 10
15 15 15 15 14 14 14 13 13 12 12 11 11 10 10 10 10 11 11 10 9 9 9 9 10 10 10 9 8 7 6 7 9 10 10 10 9 9 8 8 7 7 7 6 5 5 5 6 7 7 7 7 7 7 7 8 8 8 9 9 9 9 10 11 11 12 12 12 12 13 13 14 14 15 16 19 19 19 19 21 21 21 20 18 16 14
18 18 18 18 18 17 17 16 15 15 14 13 12 11 11 10 11 11 11 10 9 9 9 10 11 11 10 10 9 8 6 6 6 8 10 10 11 10 10 9 9 8 8 8 7 6 5 7 8 8 7 7 8 8 8 8 8 9 9 9 8 8 10 11 11 10 11 12 12 12 12 12 12 12 13 15 16 19 22 25 27 27 26 25 24 23
19 19 19 19 19 19 19 18 17 16 16 15 14 12 11 11 11 11 11 10 9 9 9 9 9 9 9 9 10 10 8 6 5 5 6 8 10 11 11 11 10 10 10 10 9 8 7 7 8 8 8 8 9 9 9 9 9 9 10 9 9 8 9 9 9 9 10 10 10 11 11 11 10 10 11 12 14 15 16 20 25 28 29 29 30 30
18 18 18 18 18 18 18 18 18 18 17 16 14 13 12 11 11 11 10 9 8 7 7 6 6 6 8 10 12 12 12 11 9 6 5 6 8 9 10 11 11 11 11 11 10 9 9 9 9 9 10 10 10 10 10 10 10 10 11 11 10 10 9 9 9 10 9 9 9 10 10 10 9 9 9 9 10 12 13 14 16 19 23 26 28 29
15 16 17 17 17 18 18 19 19 19 18 16 14 13 12 11 10 10 9 8 7 6 6 7 9 12 14 15 15 15 15 15 14 12 9 7 6 7 9 9 10 11 11 12 11 11 10 10 10 11 12 12 11 10 10 10 10 10 11 12 12 11 11 11 10 10 10 10 10 9 10 10 10 9 9 9 9 10 11 12 13 14 15 18 21 23
14 15 16 17 17 18 18 19 19 19 18 16 15 13 12 10 9 9 8 8 8 8 9 12 15 17 18 18 17 17 17 17 17 16 15 11 9 7 7 7 8 8 9 10 11 11 11 11 11 11 13 13 13 12 11 10 10 10 11 12 12 13 12 12 12 11 11 11 11 10 10 10 10 9 9 9 9 9 10 11 12 12 13 13 15 16
14 15 17 17 18 18 18 19 19 18 17 16 14 13 11 10 9 8 8 8 10 12 14 18 20 20 20 19 18 17 16 16 16 17 17 15 13 11 9 8 7 7 7 8 9 10 11 11 11 12 12 14 14 14 13 12 11 11 11 12 13 13 13 13 13 13 13 12 12 12 12 12 11 11 10 9 9 9 9 10 11 12 12 12 12 12
14 16 17 18 18 18 19 19 18 18 17 15 14 12 11 10 9 9 10 12 14 16 19 21 22 22 20 19 18 18 17 17 16 16 16 16 15 14 13 12 11 10 10 9 10 10 11 11 11 11 11 13 14 15 15 14 13 13 12 14 14 14 14 14 14 14 14 14 14 13 14 14 13 13 12 11 10 9 9 9 10 10 11 11 11 11
15 17 18 18 18 18 18 18 18 17 16 14 13 12 12 11 12 12 14 16 19 21 22 22 21 20 19 18 17 17 17 17 16 16 16 16 16 15 15 14 14 14 14 13 12 13 13 12 11 10 9 11 13 15 16 16 15 14 14 14 15 16 16 15 15 15 15 15 15 15 15 15 14 14 14 14 12 11 10 10 9 9 10 10 10 10
Height
2946 2946 2946 2947 2947 2947 2947 2947 2948 2948 2948 2949 2950 2950 2951 2951 2951 2952 2952 2952 2952 2952 2952 2952 2952 2952 2952 2952 2952 2952 2952 2952 2951 2951 2951 2951 2951 2950 2950 2950 2950 2950 2950 2949 2949 2949 2948 2948 2947 2946 2945 2944 2943 2942 2941 2941 2939 2938 2937 2936 2936 2935 2934 2933 2932 2931 2930 2929 2928 2927 2926 2924 2923 2922 2921 2920 2918 2917 2917 2916 2915 2914 2914 2913 2912 2912
2946 2946 2946 2946 2946 2946 2946 2946 2946 2947 2947 2948 2948 2949 2949 2950 2950 2950 2951 2951 2951 2951 2951 2951 2951 2951 2950 2950 2950 2950 2950 2950 2950 2949 2949 2949 2949 2949 2948 2948 2948 2948 2948 2948 2947 2947 2946 2945 2944 2943 2942 2941 2940 2939 2938 2937 2936 2935 2934 2933 2932 2931 2931 2930 2929 2927 2926 2925 2924 2923 2921 2920 2919 2918 2916 2915 2914 2913 2912 2912 2911 2910 2910 2909 2908 2908
2945 2945 2945 2945 2945 2945 2945 2945 2945 2946 2946 2946 2947 2947 2948 2948 2948 2949 2949 2949 2949 2949 2949 2949 2949 2949 2949 2949 2948 2948 2948 2948 2948 2948 2948 2948 2947 2947 2947 2947 2946 2946 2946 2946 2945 2944 2943 2941 2941 2939 2938 2937 2936 2936 2935 2934 2933 2932 2931 2930 2929 2928 2927 2926 2925 2924 2922 2921 2920 2919 2917 2916 2915 2913 2912 2911 2910 2909 2908 2908 2907 2906 2906 2905 2905 2904
2945 2945 2944 2944 2944 2944 2944 2944 2945 2945 2945 2945 2946 2946 2946 2946 2947 2947 2947 2947 2947 2947 2947 2947 2947 2947 2947 2947 2947 2947 2947 2947 2947 2947 2946 2946 2946 2946 2945 2945 2945 2944 2944 2943 2941 2940 2939 2938 2937 2936 2935 2934 2934 2933 2932 2931 2930 2929 2928 2926 2926 2924 2923 2922 2921 2920 2918 2917 2916 2915 2913 2912 2911 2910 2908 2907 2906 2906 2905 2904 2903 2902 2902 2901 2901 2900
2944 2944 2944 2944 2944 2944 2944 2944 2944 2944 2944 2945 2945 2945 2946 2946 2946 2946 2946 2946 2946 2946 2946 2946 2946 2946 2946 2946 2946 2946 2946 2946 2945 2945 2945 2945 2944 2944 2943 2943 2942 2941 2940 2939 2938 2936 2936 2935 2934 2933 2932 2931 2931 2930 2929 2928 2926 2926 2924 2923 2922 2921 2920 2918 2917 2916 2915 2913 2912 2911 2910 2908 2907 2906 2905 2904 2903 2902 2901 2900 2899 2898 2898 2897 2897 2896
2943 2943 2943 2943 2943 2944 2944 2944 2944 2944 2944 2944 2944 2945 2945 2945 2945 2945 2945 2945 2945 2945 2945 2945 2945 2945 2945 2945 2944 2944 2944 2944 2944 2943 2943 2942 2942 2941 2941 2940 2939 2938 2936 2936 2935 2934 2933 2932 2931 2931 2930 2929 2928 2927 2926 2925 2924 2922 2921 2920 2919 2917 2916 2915 2914 2912 2911 2910 2909 2907 2906 2905 2904 2903 2902 2901 2900 2898 2897 2896 2896 2895 2894 2893 2893 2892
2943 2943 2943 2943 2943 2943 2944 2944 2944 2944 2944 2944 2944 2944 2944 2944 2944 2945 2945 2945 2945 2944 2944 2944 2944 2944 2943 2943 2943 2943 2943 2942 2942 2941 2941 2940 2939 2938 2938 2936 2936 2935 2934 2933 2932 2931 2931 2930 2929 2928 2927 2926 2925 2924 2923 2921 2921 2919 2918 2917 2916 2914 2913 2912 2911 2909 2908 2907 2906 2904 2903 2902 2901 2900 2899 2897 2896 2895 2894 2893 2892 2891 2891 2890 2889 2889
2942 2943 2943 2943 2943 2943 2943 2943 2944 2944 2943 2943 2943 2943 2943 2943 2944 2944 2944 2944 2943 2943 2943 2943 2943 2942 2942 2942 2942 2941 2941 2941 2940 2939 2938 2938 2937 2936 2935 2934 2933 2932 2931 2931 2930 2929 2928 2927 2926 2925 2924 2923 2922 2921 2920 2919 2918 2916 2915 2914 2913 2911 2910 2909 2907 2906 2905 2904 2902 2901 2900 2899 2898 2896 2896 2894 2893 2892 2891 2890 2889 2888 2888 2887 2886 2885
2942 2942 2942 2943 2943 2943 2943 2943 2943 2943 2943 2943 2943 2943 2943 2943 2943 2943 2943 2942 2942 2942 2942 2942 2941 2941 2941 2941 2941 2940 2940 2939 2938 2937 2936 2936 2935 2934 2933 2932 2931 2931 2929 2928 2927 2926 2926 2925 2923 2922 2921 2920 2919 2918 2917 2916 2915 2913 2912 2911 2909 2908 2907 2906 2904 2903 2901 2901 2899 2898 2897 2896 2895 2893 2892 2891 2890 2889 2888 2887 2886 2885 2885 2884 2883 2882
2942 2942 2942 2942 2943 2943 2943 2943 2943 2943 2943 2943 2943 2943 2943 2943 2942 2942 2942 2942 2941 2941 2941 2941 2941 2940 2940 2940 2939 2939 2938 2937 2936 2936 2935 2934 2933 2932 2931 2930 2929 2928 2927 2926 2925 2924 2923 2922 2921 2920 2919 2917 2916 2915 2914 2913 2911 2910 2909 2907 2906 2904 2903 2902 2901 2899 2898 2897 2896 2894 2893 2892 2891 2889 2888 2887 2886 2885 2884 2883 2882 2881 2881 2880 2880 2879
2942 2942 2942 2942 2942 2942 2943 2943 2943 2943 2943 2943 2942 2942 2942 2942 2942 2941 2941 2941 2941 2940 2940 2940 2939 2939 2939 2938 2938 2937 2936 2936 2935 2934 2933 2932 2931 2930 2929 2928 2927 2926 2925 2923 2922 2921 2920 2919 2918 2917 2916 2914 2913 2912 2911 2909 2907 2906 2905 2903 2902 2901 2899 2898 2896 2895 2894 2893 2891 2890 2889 2887 2886 2885 2884 2883 2881 2881 2880 2879 2878 2877 2876 2876 2875 2875
2942 2942 2942 2942 2942 2942 2942 2942 2943 2943 2943 2942 2942 2942 2942 2941 2941 2941 2940 2940 2940 2939 2939 2938 2938 2938 2937 2936 2936 2936 2935 2934 2933 2932 2931 2930 2929 2928 2927 2926 2925 2923 2922 2921 2919 2918 2917 2916 2915 2913 2912 2911 2910 2908 2907 2905 2904 2902 2901 2899 2898 2896 2895 2894 2892 2891 2889 2888 2886 2885 2884 2882 2881 2880 2879 2878 2877 2876 2875 2874 2873 2872 2872 2871 2871 2870
2943 2943 2943 2943 2942 2942 2942 2942 2942 2943 2942 2942 2942 2941 2941 2941 2941 2940 2940 2939 2939 2938 2938 2937 2937 2936 2936 2935 2935 2934 2933 2932 2931 2930 2929 2928 2927 2926 2925 2924 2922 2921 2919 2918 2916 2915 2914 2913 2911 2910 2909 2908 2906 2905 2904 2902 2901 2899 2898 2896 2895 2893 2891 2890 2888 2886 2885 2883 2882 2880 2879 2877 2876 2875 2874 2873 2872 2871 2870 2869 2868 2868 2867 2867 2866 2866
2943 2943 2943 2943 2942 2942 2942 2942 2942 2942 2942 2942 2941 2941 2941 2941 2940 2940 2939 2939 2938 2938 2937 2936 2936 2935 2935 2934 2933 2932 2932 2931 2930 2929 2928 2926 2925 2924 2923 2922 2920 2918 2917 2915 2914 2912 2911 2910 2909 2908 2907 2906 2904 2903 2901 2900 2898 2896 2895 2893 2891 2890 2888 2886 2884 2883 2881 2879 2878 2876 2875 2873 2872 2871 2870 2868 2867 2866 2865 2864 2864 2863 2862 2862 2861 2861
2944 2944 2943 2943 2943 2943 2943 2943 2942 2942 2942 2941 2941 2941 2940 2940 2939 2939 2938 2938 2937 2937 2936 2935 2935 2934 2933 2932 2932 2931 2930 2930 2928 2927 2926 2925 2924 2922 2921 2920 2918 2916 2915 2913 2912 2911 2909 2908 2907 2906 2905 2903 2902 2901 2899 2897 2895 2893 2892 2890 2888 2886 2884 2883 2881 2879 2877 2876 2874 2872 2871 2869 2868 2866 2865 2864 2863 2862 2861 2860 2859 2859 2858 2857 2857 2856
2944 2944 2944 2943 2943 2943 2943 2943 2942 2942 2941 2941 2941 2940 2940 2939 2939 2938 2938 2937 2936 2936 2935 2934 2933 2933 2932 2931 2931 2930 2929 2928 2927 2926 2925 2923 2922 2921 2919 2918 2916 2914 2913 2911 2910 2909 2907 2906 2905 2904 2903 2901 2900 2898 2896 2894 2892 2890 2888 2886 2885 2883 2881 2879 2877 2876 2874 2872 2870 2869 2867 2866 2864 2863 2861 2860 2859 2858 2857 2856 2855 2854 2854 2853 2853 2852
2945 2944 2944 2944 2943 2943 2943 2942 2942 2941 2941 2940 2940 2939 2939 2938 2937 2937 2936 2936 2935 2935 2934 2933 2933 2932 2931 2931 2930 2929 2928 2927 2926 2925 2924 2922 2921 2919 2918 2916 2914 2912 2911 2909 2908 2907 2906 2904 2903 2902 2900 2898 2897 2895 2893 2891 2889 2887 2885 2883 2881 2880 2878 2876 2874 2872 2870 2868 2866 2865 2863 2861 2860 2859 2857 2856 2855 2854 2852 2851 2851 2850 2849 2849 2848 2848
2945 2945 2944 2944 2943 2943 2942 2942 2941 2941 2940 2940 2939 2938 2937 2937 2936 2936 2935 2935 2934 2934 2933 2932 2932 2931 2931 2930 2929 2928 2927 2926 2925 2924 2923 2921 2919 2917 2916 2914 2912 2911 2909 2907 2906 2905 2903 2902 2901 2899 2897 2895 2893 2891 2890 2887 2886 2884 2882 2880 2878 2876 2874 2872 2871 2869 2866 2865 2863 2861 2859 2858 2856 2855 2853 2852 2851 2850 2849 2848 2847 2846 2846 2845 2845 2844
2945 2944 2944 2943 2943 2942 2942 2941 2941 2940 2939 2939 2938 2937 2936 2936 2935 2935 2934 2934 2933 2932 2932 2931 2931 2930 2929 2929 2928 2927 2926 2925 2924 2922 2921 2919 2917 2915 2914 2912 2910 2908 2907 2906 2904 2902 2901 2899 2897 2896 2894 2892 2890 2888 2886 2884 2882 2881 2879 2877 2875 2873 2871 2869 2867 2866 2864 2862 2860 2858 2856 2855 2853 2852 2851 2849 2848 2846 2846 2844 2844 2843 2842 2842 2841 2841
2945 2944 2944 2943 2943 2942 2941 2941 2940 2939 2939 2938 2937 2936 2936 2935 2935 2934 2934 2933 2932 2932 2931 2931 2930 2929 2928 2927 2926 2925 2924 2923 2922 2921 2919 2917 2915 2913 2911 2910 2908 2906 2905 2903 2902 2900 2898 2896 2894 2892 2891 2889 2887 2885 2883 2881 2880 2878 2876 2874 2872 2871 2869 2867 2865 2863 2861 2860 2858 2856 2855 2853 2852 2850 2848 2847 2846 2844 2843 2842 2841 2840 2839 2839 2838 2838
2945 2944 2944 2943 2942 2942 2941 2940 2939 2939 2938 2937 2937 2936 2936 2935 2934 2934 2933 2932 2931 2931 2930 2930 2929 2928 2927 2926 2925 2923 2922 2921 2920 2919 2917 2916 2913 2911 2910 2908 2906 2905 2903 2901 2899 2897 2896 2893 2891 2890 2888 2886 2884 2882 2881 2879 2877 2875 2873 2871 2870 2868 2866 2865 2863 2861 2860 2858 2856 2855 2853 2852 2850 2849 2847 2846 2844 2842 2841 2840 2839 2838 2837 2836 2836 2835
2945 2944 2943 2942 2942 2941 2940 2940 2939 2938 2938 2937 2936 2936 2935 2935 2934 2933 2933 2932 2931 2930 2929 2928 2927 2926 2925 2924 2923 2922 2921 2920 2918 2917 2915 2914 2911 2910 2907 2906 2904 2903 2901 2899 2897 2895 2893 2891 2889 2887 2886 2884 2882 2880 2878 2876 2875 2873 2871 2870 2868 2866 2864 2863 2861 2859 2858 2856 2855 2853 2852 2850 2849 2847 2846 2844 2842 2841 2839 2838 2837 2836 2835 2834 2833 2832
2944 2943 2943 2942 2941 2941 2940 2939 2939 2938 2938 2937 2936 2936 2935 2934 2934 2933 2932 2931 2930 2929 2928 2927 2926 2925 2924 2923 2921 2920 2919 2918 2917 2915 2914 2912 2910 2908 2906 2904 2902 2901 2899 2897 2895 2893 2891 2889 2887 2886 2884 2882 2880 2878 2876 2875 2873 2871 2870 2868 2866 2864 2863 2861 2859 2857 2856 2855 2853 2852 2850 2849 2847 2846 2844 2843 2841 2840 2838 2837 2836 2834 2833 2832 2831 2830
2944 2943 2942 2942 2941 2941 2940 2939 2939 2938 2937 2937 2936 2936 2935 2934 2933 2932 2931 2930 2929 2928 2927 2926 2925 2924 2923 2921 2920 2919 2918 2916 2915 2914 2912 2910 2908 2906 2904 2902 2900 2898 2897 2895 2893 2891 2890 2888 2886 2884 2882 2880 2879 2877 2875 2874 2872 2871 2869 2867 2865 2863 2861 2859 2857 2856 2854 2853 2851 2850 2849 2847 2846 2845 2843 2841 2840 2839 2837 2836 2835 2833 2832 2831 2830 2828
2944 2943 2942 2942 2941 2941 2940 2940 2939 2938 2937 2937 2936 2935 2935 2934 2933 2932 2931 2930 2929 2927 2926 2925 2924 2923 2922 2921 2919 2918 2916 2915 2914 2912 2910 2908 2906 2904 2902 2900 2898 2897 2895 2894 2892 2890 2888 2886 2885 2883 2881 2879 2878 2876 2875 2873 2871 2869 2867 2865 2862 2861 2859 2857 2855 2854 2852 2851 2850 2848 2847 2846 2845 2843 2842 2841 2839 2838 2836 2835 2834 2833 2831 2830 2829 2828
2944 2943 2942 2942 2941 2941 2940 2939 2939 2938 2937 2936 2936 2935 2934 2933 2932 2931 2930 2929 2928 2926 2926 2924 2923 2922 2921 2920 2918 2917 2915 2914 2912 2911 2909 2907 2905 2903 2901 2899 2897 2896 2894 2892 2891 2889 2887 2886 2884 2882 2880 2879 2877 2876 2874 2872 2870 2867 2865 2862 2860 2858 2856 2855 2853 2852 2850 2849 2848 2846 2845 2844 2843 2842 2841 2839 2838 2837 2836 2835 2833 2832 2831 2830 2829 2827
2944 2943 2942 2941 2941 2940 2940 2939 2938 2937 2937 2936 2935 2934 2933 2932 2931 2930 2929 2928 2927 2926 2925 2924 2923 2921 2920 2919 2917 2915 2914 2912 2911 2909 2907 2906 2904 2902 2900 2898 2896 2895 2893 2891 2890 2889 2887 2885 2883 2881 2880 2878 2877 2875 2872 2870 2867 2865 2862 2860 2858 2857 2855 2853 2852 2850 2849 2847 2846 2845 2844 2842 2841 2840 2839 2838 2837 2836 2835 2834 2833 2832 2831 2830 2829 2827
2944 2943 2942 2941 2941 2940 2939 2939 2938 2937 2936 2935 2934 2933 2932 2931 2930 2929 2928 2927 2926 2926 2925 2923 2922 2921 2919 2917 2916 2914 2912 2911 2910 2908 2906 2905 2903 2901 2900 2898 2896 2894 2892 2891 2889 2888 2886 2885 2883 2881 2879 2877 2875 2873 2870 2867 2865 2863 2861 2859 2857 2856 2854 2852 2851 2849 2848 2846 2845 2844 2842 2841 2840 2839 2838 2836 2836 2834 2833 2832 2831 2831 2830 2829 2828 2827
2943 2943 2942 2941 2941 2940 2939 2938 2937 2936 2936 2935 2934 2933 2932 2931 2930 2929 2928 2927 2926 2925 2924 2923 2921 2920 2918 2916 2915 2913 2911 2910 2909 2907 2906 2904 2903 2901 2900 2898 2896 2895 2893 2891 2889 2887 2886 2884 2882 2880 2878 2876 2873 2870 2868 2866 2864 2862 2860 2858 2856 2855 2853 2852 2850 2849 2847 2846 2845 2843 2842 2841 2839 2838 2837 2836 2834 2833 2832 2831 2831 2830 2829 2828 2827 2827
2943 2942 2942 2941 2940 2940 2939 2938 2937 2936 2935 2934 2933 2932 2931 2930 2929 2928 2927 2926 2926 2925 2923 2922 2921 2919 2917 2916 2914 2912 2911 2910 2908 2907 2906 2904 2902 2901 2900 2898 2897 2895 2893 2891 2889 2886 2884 2882 2880 2878 2876 2873 2871 2868 2866 2865 2863 2862 2860 2858 2857 2855 2853 2852 2850 2849 2847 2846 2845 2843 2842 2841 2839 2838 2836 2835 2834 2832 2831 2830 2829 2828 2828 2827 2826 2826
2943 2942 2941 2941 2940 2939 2938 2937 2937 2936 2935 2934 2933 2932 2931 2930 2929 2928 2927 2926 2925 2924 2923 2921 2920 2918 2916 2915 2913 2912 2911 2909 2908 2907 2906 2904 2902 2901 2900 2898 2896 2895 2893 2891 2889 2886 2884 2881 2879 2876 2874 2871 2869 2868 2866 2865 2863 2862 2860 2859 2857 2856 2854 2852 2851 2849 2848 2846 2845 2844 2842 2841 2839 2838 2836 2835 2833 2832 2831 2829 2828 2827 2827 2826 2826 2825
2943 2942 2941 2941 2940 2939 2938 2937 2936 2936 2935 2934 2932 2931 2930 2929 2928 2927 2926 2925 2924 2923 2922 2920 2919 2917 2916 2914 2913 2911 2910 2909 2908 2906 2905 2904 2902 2901 2900 2898 2896 2894 2892 2891 2888 2886 2883 2881 2878 2876 2873 2871 2869 2867 2866 2865 2863 2862 2860 2859 2857 2856 2854 2852 2851 2850 2848 2846 2845 2844 2842 2841 2839 2837 2836 2835 2833 2832 2831 2829 2828 2827 2826 2825 2825 2824
2943 2942 2941 2940 2939 2939 2938 2937 2936 2935 2934 2933 2932 2931 2930 2929 2928 2927 2926 2925 2924 2922 2921 2920 2918 2917 2915 2914 2912 2911 2910 2909 2908 2906 2905 2904 2902 2901 2899 2898 2896 2894 2891 2889 2887 2885 2883 2880 2877 2875 2873 2871 2869 2867 2866 2864 2863 2861 2860 2859 2857 2856 2854 2852 2851 2849 2848 2846 2845 2843 2842 2841 2839 2837 2836 2835 2833 2832 2831 2829 2828 2826 2826 2825 2824 2823
2942 2941 2941 2940 2939 2938 2937 2936 2936 2935 2934 2933 2931 2931 2929 2928 2927 2926 2925 2924 2923 2922 2921 2919 2918 2916 2915 2914 2913 2911 2910 2909 2908 2907 2905 2904 2902 2901 2899 2898 2896 2893 2891 2889 2886 2884 2882 2880 2877 2875 2873 2871 2869 2867 2866 2864 2863 2861 2860 2858 2857 2855 2854 2852 2851 2849 2847 2846 2844 2843 2841 2840 2839 2837 2836 2834 2833 2831 2830 2829 2828 2826 2825 2824 2823 2823
2942 2941 2941 2940 2939 2938 2937 2936 2935 2934 2933 2932 2931 2930 2929 2928 2927 2926 2925 2924 2923 2921 2920 2919 2918 2916 2915 2914 2913 2911 2910 2909 2908 2906 2905 2904 2902 2901 2899 2897 2896 2893 2891 2889 2886 2884 2882 2880 2878 2876 2874 2872 2870 2868 2866 2864 2863 2861 2860 2858 2856 2855 2853 2851 2850 2848 2847 2845 2844 2842 2841 2840 2838 2837 2835 2834 2832 2831 2830 2829 2828 2826 2825 2824 2823 2822
2943 2941 2941 2939 2938 2937 2936 2936 2935 2934 2932 2931 2931 2930 2929 2927 2927 2926 2925 2924 2922 2921 2920 2919 2918 2916 2915 2914 2913 2911 2910 2909 2908 2906 2905 2904 2902 2901 2899 2897 2895 2893 2891 2889 2887 2885 2882 2880 2878 2876 2875 2873 2871 2869 2867 2865 2864 2862 2860 2858 2857 2855 2853 2851 2850 2848 2846 2845 2843 2842 2840 2839 2837 2836 2835 2834 2832 2831 2830 2829 2827 2826 2825 2824 2823 2822
2943 2942 2941 2940 2938 2937 2936 2935 2934 2933 2932 2931 2930 2929 2928 2927 2926 2926 2925 2923 2922 2921 2920 2919 2918 2916 2915 2914 2913 2912 2911 2909 2908 2906 2905 2904 2902 2901 2899 2897 2895 2893 2891 2889 2887 2885 2883 2881 2879 2877 2875 2873 2871 2869 2868 2866 2864 2862 2860 2859 2857 2855 2853 2851 2850 2848 2846 2844 2843 2841 2840 2838 2837 2836 2834 2833 2832 2831 2830 2829 2827 2826 2825 2824 2823 2822
2943 2942 2941 2940 2938 2937 2936 2935 2934 2933 2932 2931 2930 2929 2928 2927 2926 2925 2924 2923 2922 2921 2920 2919 2918 2916 2916 2914 2913 2912 2911 2910 2908 2906 2905 2903 2902 2900 2898 2896 2895 2892 2891 2889 2887 2885 2883 2881 2879 2877 2875 2873 2871 2870 2868 2866 2865 2863 2861 2859 2857 2855 2854 2851 2850 2848 2846 2844 2842 2841 2839 2837 2836 2835 2834 2832 2831 2830 2829 2828 2827 2826 2825 2824 2823 2822
2943 2942 2941 2940 2938 2937 2936 2935 2934 2933 2932 2931 2930 2929 2928 2927 2926 2925 2924 2923 2922 2921 2920 2919 2918 2917 2916 2914 2913 2912 2911 2909 2908 2906 2905 2903 2901 2900 2898 2896 2894 2892 2890 2888 2886 2884 2882 2881 2879 2876 2875 2873 2871 2870 2868 2867 2865 2863 2861 2859 2857 2856 2854 2852 2850 2848 2846 2844 2842 2841 2839 2837 2836 2834 2833 2832 2831 2830 2829 2828 2826 2826 2825 2824 2823 2822
2943 2942 2941 2940 2938 2937 2936 2935 2934 2933 2932 2931 2930 2929 2928 2927 2926 2925 2924 2923 2922 2921 2920 2919 2918 2917 2916 2915 2913 2912 2911 2909 2908 2906 2905 2903 2901 2899 2897 2896 2894 2892 2890 2888 2886 2884 2882 2881 2879 2876 2875 2873 2871 2870 2869 2867 2866 2864 2862 2860 2858 2856 2854 2852 2850 2848 2846 2844 2842 2841 2839 2837 2836 2834 2833 2831 2830 2829 2828 2827 2826 2825 2824 2823 2822 2821
2943 2942 2941 2939 2938 2937 2936 2935 2934 2932 2931 2931 2930 2929 2928 2927 2926 2925 2924 2923 2922 2921 2920 2918 2917 2916 2916 2915 2913 2912 2911 2909 2908 2906 2904 2903 2901 2899 2897 2896 2894 2891 2890 2888 2886 2884 2882 2881 2879 2877 2875 2873 2872 2871 2869 2868 2866 2864 2862 2860 2858 2856 2855 2852 2851 2848 2846 2845 2843 2841 2839 2838 2836 2835 2833 2831 2830 2829 2828 2826 2826 2824 2823 2823 2822 2821
2943 2942 2941 2939 2938 2937 2936 2935 2933 2932 2931 2931 2929 2928 2927 2926 2926 2924 2923 2922 2921 2920 2919 2918 2917 2916 2915 2914 2913 2912 2911 2909 2907 2906 2904 2902 2901 2899 2897 2896 2893 2891 2890 2888 2886 2884 2882 2881 2879 2877 2875 2874 2872 2871 2870 2868 2866 2864 2863 2861 2859 2857 2855 2853 2851 2849 2847 2845 2843 2841 2840 2838 2836 2835 2833 2831 2830 2829 2827 2826 2825 2824 2823 2822 2821 2820
2943 2942 2940 2939 2938 2937 2936 2935 2933 2932 2931 2930 2929 2928 2927 2926 2925 2924 2923 2922 2921 2920 2919 2918 2917 2916 2915 2914 2913 2911 2910 2909 2907 2906 2904 2902 2901 2899 2897 2895 2893 2891 2890 2888 2886 2884 2882 2881 2879 2877 2876 2875 2873 2871 2870 2868 2866 2865 2863 2861 2859 2857 2856 2853 2851 2850 2847 2846 2844 2842 2841 2839 2837 2835 2833 2832 2830 2829 2827 2826 2825 2824 2823 2822 2821 2820
2943 2941 2940 2939 2938 2937 2936 2935 2933 2932 2931 2930 2929 2928 2927 2926 2926 2925 2924 2923 2921 2921 2919 2918 2917 2916 2915 2914 2912 2911 2910 2908 2906 2905 2903 2901 2900 2898 2897 2895 2893 2891 2890 2888 2886 2885 2883 2881 2880 2878 2877 2875 2874 2872 2870 2869 2867 2865 2863 2861 2860 2858 2856 2854 2852 2850 2848 2846 2845 2843 2841 2840 2838 2836 2834 2833 2831 2830 2828 2827 2826 2824 2823 2821 2821 2819
2943 2942 2940 2939 2938 2937 2936 2934 2933 2932 2931 2930 2929 2928 2928 2927 2926 2925 2924 2923 2922 2921 2920 2919 2918 2917 2916 2915 2913 2911 2909 2907 2906 2904 2902 2901 2899 2898 2896 2895 2893 2892 2890 2888 2887 2886 2884 2882 2881 2879 2877 2876 2874 2872 2871 2869 2867 2866 2864 2862 2860 2858 2856 2855 2853 2851 2849 2847 2846 2844 2842 2840 2839 2837 2835 2834 2832 2831 2829 2827 2826 2825 2823 2822 2821 2819
2943 2942 2941 2939 2938 2936 2935 2934 2933 2932 2931 2931 2930 2929 2928 2927 2926 2926 2925 2924 2923 2922 2921 2920 2919 2917 2916 2915 2913 2911 2910 2908 2906 2904 2902 2900 2899 2897 2896 2895 2893 2892 2891 2889 2887 2886 2885 2883 2881 2880 2878 2876 2875 2873 2871 2869 2868 2866 2865 2863 2861 2859 2857 2855 2853 2851 2850 2848 2846 2845 2843 2841 2840 2838 2836 2834 2833 2831 2830 2828 2827 2826 2824 2822 2821 2820
2944 2942 2941 2939 2938 2936 2936 2934 2933 2932 2932 2931 2930 2929 2929 2928 2927 2926 2926 2925 2923 2922 2921 2920 2919 2917 2916 2914 2913 2911 2910 2908 2906 2904 2902 2900 2898 2897 2896 2895 2893 2892 2891 2889 2888 2886 2885 2884 2882 2881 2879 2877 2876 2874 2871 2870 2868 2866 2865 2863 2861 2859 2857 2856 2854 2852 2850 2849 2847 2845 2844 2842 2840 2839 2837 2835 2834 2832 2831 2829 2828 2826 2825 2823 2822 2821
2944 2942 2941 2940 2938 2937 2936 2935 2934 2933 2932 2931 2931 2930 2929 2929 2928 2927 2926 2925 2924 2922 2921 2920 2918 2917 2916 2914 2912 2911 2909 2907 2906 2904 2902 2901 2899 2897 2896 2894 2893 2892 2891 2890 2888 2887 2886 2884 2883 2881 2880 2878 2876 2874 2872 2870 2869 2867 2865 2863 2861 2860 2858 2856 2855 2853 2851 2849 2847 2846 2844 2842 2841 2839 2838 2836 2834 2833 2831 2830 2829 2827 2826 2825 2823 2821
2945 2943 2941 2940 2939 2937 2936 2935 2934 2934 2933 2932 2931 2931 2930 2929 2928 2927 2926 2925 2923 2922 2921 2919 2918 2917 2915 2914 2912 2911 2909 2907 2906 2904 2903 2901 2900 2898 2896 2895 2894 2892 2891 2890 2889 2887 2886 2885 2884 2882 2880 2878 2876 2875 2873 2871 2869 2867 2866 2863 2861 2860 2858 2856 2855 2853 2851 2850 2848 2846 2845 2843 2841 2840 2838 2837 2835 2834 2832 2831 2829 2828 2827 2826 2824 2822
2945 2944 2942 2941 2940 2938 2937 2936 2935 2934 2934 2933 2932 2931 2931 2930 2928 2927 2926 2925 2923 2922 2921 2920 2918 2917 2916 2914 2912 2911 2909 2907 2906 2904 2903 2902 2900 2899 2898 2896 2895 2894 2892 2891 2890 2888 2887 2886 2884 2883 2881 2879 2877 2876 2874 2872 2870 2868 2866 2864 2862 2861 2859 2857 2855 2853 2852 2850 2849 2847 2845 2844 2842 2841 2839 2838 2836 2835 2833 2832 2830 2829 2827 2826 2825 2823
2946 2945 2943 2942 2940 2939 2938 2937 2936 2935 2934 2933 2933 2932 2931 2930 2929 2927 2926 2925 2924 2922 2921 2920 2918 2917 2916 2914 2912 2911 2909 2908 2906 2905 2904 2902 2901 2900 2899 2898 2897 2896 2894 2893 2891 2890 2888 2887 2885 2883 2882 2880 2879 2877 2875 2873 2871 2869 2867 2865 2863 2861 2859 2857 2856 2854 2852 2851 2849 2847 2846 2845 2843 2841 2840 2839 2837 2836 2834 2832 2831 2830 2828 2827 2826 2824